| time (UTC) | temp C | wind direction | speed KPH | gust KPH | rain 1hr cm | rain 24hr cm | rain mn cm | humidity % | barometer mb |
| 20260503053504 | 6 | 220 | 3.2 | 0.0 | 0.00 | 0.00 | 0.00 | 61 | 1023.0 |
| 20260503050503 | 6 | 220 | 3.2 | 0.0 | 0.00 | 0.00 | 0.00 | 61 | 1023.0 |
| 20260503043503 | 5 | 3.2 | 0.0 | 0.00 | 0.00 | 0.00 | 66 | 1023.0 | |
| 20260503040504 | 3 | 0 | 0.0 | 0.0 | 0.00 | 0.00 | 0.00 | 70 | 1023.0 |
| 20260503033502 | 2 | 0 | 0.0 | 0.0 | 0.00 | 0.00 | 0.00 | 75 | 1023.0 |
| 20260503030503 | 2 | 0 | 0.0 | 0.0 | 0.00 | 0.00 | 0.00 | 75 | 1023.0 |
| 20260503023503 | 1 | 260 | 1.6 | 0.0 | 0.00 | 0.00 | 0.00 | 75 | 1023.0 |
| 20260503020502 | 2 | 290 | 4.8 | 0.0 | 0.00 | 0.00 | 0.00 | 65 | 1023.0 |
| 20260503013503 | 3 | 280 | 3.2 | 0.0 | 0.00 | 0.00 | 0.00 | 65 | 1023.0 |
| 20260503010503 | 3 | 0 | 0.0 | 0.0 | 0.00 | 0.00 | 0.00 | 65 | 1023.0 |
| 20260503003502 | 3 | 290 | 1.6 | 0.0 | 0.00 | 0.00 | 0.00 | 70 | 1023.0 |
| 20260503000502 | 2 | 250 | 1.6 | 0.0 | 0.00 | 0.00 | 0.00 | 70 | 1023.0 |
| 20260502233502 | 6 | 280 | 3.2 | 0.0 | 0.00 | 0.00 | 0.00 | 61 | 1023.0 |
| 20260502230502 | 7 | 0 | 0.0 | 0.0 | 0.00 | 0.00 | 0.00 | 53 | 1023.0 |
| 20260502223502 | 7 | 0 | 0.0 | 0.0 | 0.00 | 0.00 | 0.00 | 49 | 1023.0 |
| 20260502220503 | 7 | 1.6 | 0.0 | 0.00 | 0.00 | 0.00 | 49 | 1023.0 | |
| 20260502213502 | 7 | 0 | 0.0 | 0.0 | 0.00 | 0.00 | 0.00 | 49 | 1023.0 |
| 20260502210502 | 7 | 1.6 | 0.0 | 0.00 | 0.00 | 0.00 | 46 | 1023.0 | |
| 20260502203502 | 7 | 0 | 0.0 | 0.0 | 0.00 | 0.00 | 0.00 | 43 | 1023.0 |
| 20260502200503 | 8 | 110 | 4.8 | 0.0 | 0.00 | 0.00 | 0.00 | 40 | 1023.0 |
| 20260502193503 | 8 | 70 | 4.8 | 0.0 | 0.00 | 0.00 | 0.00 | 40 | 1023.0 |
| 20260502190502 | 8 | 50 | 9.7 | 0.0 | 0.00 | 0.00 | 0.00 | 40 | 1023.0 |
| 20260502183503 | 10 | 50 | 9.7 | 0.0 | 0.00 | 0.00 | 0.00 | 37 | 1023.0 |
| 20260502180503 | 10 | 50 | 9.7 | 0.0 | 0.00 | 0.00 | 0.00 | 40 | 1023.0 |
| 20260502170503 | 12 | 70 | 8.0 | 0.0 | 0.00 | 0.00 | 0.00 | 35 | 1023.0 |
| 20260502163503 | 12 | 80 | 11.3 | 0.0 | 0.00 | 0.00 | 0.00 | 31 | 1023.0 |
| 20260502160502 | 12 | 90 | 9.7 | 0.0 | 0.00 | 0.00 | 0.00 | 31 | 1023.0 |
| 20260502150502 | 12 | 50 | 12.9 | 0.0 | 0.00 | 0.00 | 0.00 | 28 | 1023.0 |
| 20260502130502 | 12 | 70 | 14.5 | 0.0 | 0.00 | 0.00 | 0.00 | 33 | 1023.0 |
| 20260502123503 | 12 | 70 | 11.3 | 0.0 | 0.00 | 0.00 | 0.00 | 33 | 1024.0 |
| 20260502120503 | 13 | 70 | 14.5 | 0.0 | 0.00 | 0.00 | 0.00 | 31 | 1024.0 |
| 20260502113502 | 12 | 60 | 14.5 | 0.0 | 0.00 | 0.00 | 0.00 | 31 | 1024.0 |
| 20260502110502 | 12 | 70 | 14.5 | 0.0 | 0.00 | 0.00 | 0.00 | 31 | 1024.0 |
| 20260502103503 | 12 | 100 | 12.9 | 0.0 | 0.00 | 0.00 | 0.00 | 33 | 1024.0 |
| 20260502100502 | 12 | 50 | 12.9 | 0.0 | 0.00 | 0.00 | 0.00 | 38 | 1024.0 |
| 20260502090503 | 12 | 140 | 11.3 | 0.0 | 0.00 | 0.00 | 0.00 | 44 | 1024.0 |
| 20260502070503 | 8 | 70 | 4.8 | 0.0 | 0.00 | 0.00 | 0.00 | 62 | 1024.0 |
| 20260502063502 | 8 | 60 | 4.8 | 0.0 | 0.00 | 0.00 | 0.00 | 62 | 1024.0 |
| 20260502060502 | 7 | 310 | 4.8 | 0.0 | 0.00 | 0.00 | 0.00 | 76 | 1024.0 |